When you browse on this site, cookies collect data to enhance your experience and personalize the content and advertising you see.
Visit our Privacy Policy to learn more. By continuing to use the site, you agree to this use of cookies and data.
  • In Hungary
  • List of Countries
  • For 7 days
  • Water Temperature
  • Weather Map
  • News
  • Weather Widgets
  • user-avatar
    Login

    Hourly Weather Cartagena

    Today, 17 November, Sunday

    Time Temperature Precipitation Wind Pressure Humidity
    00:00 +26°C° 0 mm 3 mps 755 mmHg 92%
    01:00 +26°C° 0 mm 3 mps 754 mmHg 92%
    02:00 +26°C° 0 mm 3 mps 754 mmHg 92%
    03:00 +26°C° 0 mm 3 mps 754 mmHg 92%
    04:00 +26°C° 0 mm 3 mps 754 mmHg 92%
    05:00 +26°C° 0 mm 3 mps 754 mmHg 92%
    06:00 +27°C° 0 mm 3 mps 754 mmHg 91%
    07:00 +27°C° 0 mm 2 mps 755 mmHg 90%
    08:00 +28°C° 0 mm 2 mps 755 mmHg 85%
    09:00 +29°C° 0 mm 2 mps 755 mmHg 80%
    10:00 +31°C° 0 mm 2 mps 756 mmHg 74%
    11:00 +31°C° 0 mm 2 mps 755 mmHg 73%
    12:00 +31°C° 0 mm 2 mps 754 mmHg 71%
    13:00 +31°C° 0 mm 3 mps 753 mmHg 69%
    14:00 +31°C° 0 mm 3 mps 753 mmHg 71%
    15:00 +31°C° 0 mm 3 mps 753 mmHg 74%
    16:00 +30°C° 0 mm 3 mps 752 mmHg 76%
    17:00 +29°C° 0 mm 3 mps 753 mmHg 80%
    18:00 +28°C° 0 mm 3 mps 753 mmHg 84%
    19:00 +27°C° 0 mm 3 mps 754 mmHg 88%
    20:00 +27°C° 0 mm 3 mps 754 mmHg 89%
    21:00 +27°C° 0 mm 3 mps 755 mmHg 89%
    22:00 +27°C° 0 mm 3 mps 755 mmHg 90%
    23:00 +26°C° 0.1 mm 3 mps 755 mmHg 90%

    Tomorrow, 18 November, Monday

    Time Temperature Precipitation Wind Pressure Humidity
    00:00 +26°C° 0.1 mm 3 mps 755 mmHg 91%
    01:00 +26°C° 0.1 mm 3 mps 754 mmHg 92%
    02:00 +26°C° 0 mm 3 mps 754 mmHg 92%
    03:00 +26°C° 0 mm 3 mps 754 mmHg 92%
    04:00 +25°C° 0 mm 3 mps 754 mmHg 92%
    05:00 +26°C° 0.1 mm 3 mps 754 mmHg 91%
    06:00 +26°C° 0.1 mm 3 mps 755 mmHg 90%
    07:00 +26°C° 0.1 mm 3 mps 755 mmHg 89%
    08:00 +28°C° 0.1 mm 2 mps 756 mmHg 82%
    09:00 +29°C° 0.1 mm 2 mps 756 mmHg 76%
    10:00 +31°C° 0.1 mm 1 mps 756 mmHg 70%
    11:00 +31°C° 0.1 mm 2 mps 756 mmHg 69%
    12:00 +31°C° 0.1 mm 2 mps 755 mmHg 68%
    13:00 +32°C° 0.1 mm 2 mps 754 mmHg 67%
    14:00 +31°C° 0.5 mm 3 mps 754 mmHg 70%
    15:00 +31°C° 0.5 mm 3 mps 754 mmHg 74%
    16:00 +30°C° 0.5 mm 3 mps 753 mmHg 77%
    17:00 +29°C° 0.1 mm 4 mps 754 mmHg 81%
    18:00 +28°C° 0.1 mm 4 mps 754 mmHg 85%
    19:00 +27°C° 0.1 mm 4 mps 755 mmHg 88%
    20:00 +27°C° 0 mm 4 mps 755 mmHg 89%
    21:00 +27°C° 0 mm 4 mps 755 mmHg 90%
    22:00 +26°C° 0 mm 4 mps 756 mmHg 90%
    23:00 +26°C° 0.1 mm 3 mps 756 mmHg 91%

    Day after tomorrow, 19 November, Tuesday

    Time Temperature Precipitation Wind Pressure Humidity
    00:00 +26°C° 0.1 mm 3 mps 756 mmHg 91%
    01:00 +26°C° 0.1 mm 3 mps 755 mmHg 92%
    02:00 +26°C° 0.1 mm 3 mps 755 mmHg 92%
    03:00 +25°C° 0.1 mm 3 mps 755 mmHg 92%
    04:00 +25°C° 0.1 mm 3 mps 755 mmHg 93%
    05:00 +26°C° 0.1 mm 3 mps 755 mmHg 92%
    06:00 +26°C° 0.1 mm 3 mps 756 mmHg 91%
    07:00 +27°C° 0.1 mm 3 mps 756 mmHg 90%
    08:00 +28°C° 0.1 mm 3 mps 756 mmHg 83%
    09:00 +29°C° 0.1 mm 3 mps 757 mmHg 77%
    10:00 +31°C° 0.1 mm 3 mps 757 mmHg 70%
    11:00 +31°C° 0 mm 3 mps 756 mmHg 68%
    12:00 +33°C° 0 mm 3 mps 756 mmHg 66%
    13:00 +33°C° 0 mm 3 mps 755 mmHg 64%
    14:00 +33°C° 0.1 mm 4 mps 755 mmHg 69%
    15:00 +32°C° 0.1 mm 4 mps 755 mmHg 75%
    16:00 +30°C° 0.1 mm 5 mps 754 mmHg 80%
    17:00 +29°C° 0.1 mm 5 mps 755 mmHg 83%
    18:00 +28°C° 0.1 mm 5 mps 755 mmHg 85%
    19:00 +27°C° 0.1 mm 5 mps 756 mmHg 88%
    20:00 +27°C° 0 mm 5 mps 756 mmHg 89%
    21:00 +27°C° 0 mm 4 mps 756 mmHg 89%
    22:00 +27°C° 0 mm 4 mps 757 mmHg 90%
    23:00 +27°C° 0.2 mm 4 mps 757 mmHg 90%

    20 November, Wednesday

    Time Temperature Precipitation Wind Pressure Humidity
    00:00 +27°C° 0.2 mm 4 mps 756 mmHg 90%
    01:00 +27°C° 0.2 mm 4 mps 756 mmHg 90%
    02:00 +26°C° 0.1 mm 4 mps 756 mmHg 90%
    03:00 +26°C° 0.1 mm 4 mps 756 mmHg 91%
    04:00 +26°C° 0.1 mm 4 mps 756 mmHg 91%
    05:00 +26°C° 0 mm 4 mps 756 mmHg 91%
    06:00 +26°C° 0 mm 4 mps 757 mmHg 90%
    07:00 +27°C° 0 mm 4 mps 757 mmHg 90%
    08:00 +28°C° 0.1 mm 4 mps 757 mmHg 85%
    09:00 +29°C° 0.1 mm 4 mps 758 mmHg 80%
    10:00 +30°C° 0.1 mm 4 mps 758 mmHg 76%
    11:00 +32°C° 0.1 mm 4 mps 757 mmHg 75%
    12:00 +32°C° 0.1 mm 5 mps 757 mmHg 74%
    13:00 +32°C° 0.1 mm 5 mps 756 mmHg 74%
    14:00 +30°C° 0.2 mm 5 mps 756 mmHg 76%
    15:00 +30°C° 0.2 mm 6 mps 755 mmHg 79%
    16:00 +29°C° 0.2 mm 6 mps 755 mmHg 81%
    17:00 +28°C° 0 mm 6 mps 755 mmHg 84%
    18:00 +28°C° 0 mm 5 mps 756 mmHg 86%
    19:00 +27°C° 0 mm 5 mps 756 mmHg 88%
    20:00 +27°C° 0 mm 5 mps 756 mmHg 90%
    21:00 +26°C° 0 mm 4 mps 757 mmHg 91%
    22:00 +26°C° 0 mm 4 mps 757 mmHg 92%
    23:00 +26°C° 0 mm 4 mps 757 mmHg 91%

    21 November, Thursday

    Time Temperature Precipitation Wind Pressure Humidity
    00:00 +26°C° 0 mm 4 mps 756 mmHg 91%
    01:00 +26°C° 0 mm 4 mps 756 mmHg 91%
    02:00 +26°C° 0 mm 4 mps 756 mmHg 91%
    03:00 +26°C° 0 mm 3 mps 756 mmHg 91%
    04:00 +26°C° 0 mm 3 mps 756 mmHg 91%
    05:00 +26°C° 0.1 mm 3 mps 756 mmHg 90%
    06:00 +27°C° 0.1 mm 3 mps 757 mmHg 90%
    07:00 +27°C° 0.1 mm 3 mps 757 mmHg 89%
    08:00 +28°C° 0.1 mm 3 mps 757 mmHg 84%
    09:00 +29°C° 0.1 mm 3 mps 758 mmHg 79%
    10:00 +30°C° 0.1 mm 2 mps 758 mmHg 75%
    11:00 +31°C° 0 mm 2 mps 757 mmHg 71%
    12:00 +32°C° 0 mm 2 mps 756 mmHg 67%
    13:00 +32°C° 0 mm 2 mps 755 mmHg 64%
    14:00 +32°C° 0.2 mm 2 mps 755 mmHg 68%
    15:00 +31°C° 0.2 mm 3 mps 754 mmHg 72%
    16:00 +30°C° 0.2 mm 3 mps 754 mmHg 76%
    17:00 +29°C° 0.2 mm 4 mps 754 mmHg 80%
    18:00 +28°C° 0.2 mm 4 mps 755 mmHg 84%
    19:00 +27°C° 0.2 mm 4 mps 755 mmHg 88%
    20:00 +27°C° 0 mm 4 mps 756 mmHg 88%
    21:00 +26°C° 0 mm 4 mps 756 mmHg 89%
    22:00 +26°C° 0 mm 4 mps 756 mmHg 89%
    23:00 +26°C° 0.1 mm 4 mps 756 mmHg 90%

    22 November, Friday

    Time Temperature Precipitation Wind Pressure Humidity
    00:00 +26°C° 0.1 mm 4 mps 756 mmHg 91%
    01:00 +26°C° 0.1 mm 3 mps 755 mmHg 92%
    02:00 +26°C° 0.4 mm 4 mps 755 mmHg 92%
    03:00 +26°C° 0.4 mm 4 mps 755 mmHg 92%
    04:00 +26°C° 0.4 mm 4 mps 755 mmHg 91%
    05:00 +26°C° 0.2 mm 3 mps 755 mmHg 91%
    06:00 +26°C° 0.2 mm 3 mps 756 mmHg 91%
    07:00 +26°C° 0.2 mm 2 mps 756 mmHg 90%
    08:00 +28°C° 0 mm 2 mps 756 mmHg 84%
    09:00 +29°C° 0 mm 2 mps 757 mmHg 78%
    10:00 +31°C° 0 mm 2 mps 757 mmHg 72%
    11:00 +31°C° 0.1 mm 2 mps 756 mmHg 71%
    12:00 +31°C° 0.1 mm 2 mps 756 mmHg 69%
    13:00 +32°C° 0.1 mm 2 mps 755 mmHg 68%
    14:00 +31°C° 0.6 mm 2 mps 755 mmHg 71%
    15:00 +31°C° 0.6 mm 2 mps 754 mmHg 74%
    16:00 +30°C° 0.6 mm 2 mps 754 mmHg 77%
    17:00 +29°C° 0.5 mm 2 mps 754 mmHg 81%
    18:00 +28°C° 0.5 mm 3 mps 754 mmHg 85%
    19:00 +27°C° 0.5 mm 3 mps 755 mmHg 89%
    20:00 +26°C° 0 mm 3 mps 755 mmHg 90%
    21:00 +26°C° 0 mm 3 mps 756 mmHg 90%
    22:00 +26°C° 0 mm 3 mps 756 mmHg 90%
    23:00 +26°C° 0.2 mm 3 mps 756 mmHg 91%
    Show more